Regional Weather Roundup
Issued by NWS

Home | Current Version | Previous Version | Text Only | Print | Product List | Glossary On
Versions: 1 2 3 4 5 6 7 8 9 10 11 12 13 14 15 16 17 18 19 20 21 22 23 24 25 26 27 28 29 30 31 32 33 34 35 36 37 38 39 40 41 42 43 44 45 46 47 48 49 50
000
ASUS43 KDTX 201910
RWRMI
MICHIGAN HOURLY REGIONAL WEATHER ROUNDUP
NATIONAL WEATHER SERVICE DETROIT/PONTIAC MI
ISSUED BY NATIONAL WEATHER SERVICE GRAND RAPIDS MI
300 PM EDT THU JUL 20 2017

NOTE: "FAIR" INDICATES FEW OR NO CLOUDS BELOW 12,000 FEET WITH NO
SIGNIFICANT WEATHER AND/OR OBSTRUCTION TO VISIBILITY.

MIZ047>049-052>055-059>063-066>070-074>076-081>083-202000-
SOUTHEAST LOWER MICHIGAN

CITY           SKY/WX    TMP DP  RH WIND       PRES   REMARKS
ADRIAN         CLOUDY    80  69  69 W6        30.02R
ALMA           CLOUDY    83  66  56 W16       29.96S
ANN ARBOR      CLOUDY    81  69  67 SW8       29.99S
BAD AXE        CLOUDY    82  67  61 W13       29.94S
DETROIT CITY   MOSUNNY   87  64  46 NW7       29.97S
DETROIT        CLOUDY    85  68  56 SW13      29.98F
FLINT          CLOUDY    79  66  64 W9        29.98R
GROSSE ILE     CLOUDY    85  69  58 SW7       29.97F
HILLSDALE      CLOUDY    81  68  65 W3        30.00F
HOWELL         CLOUDY    79  67  67 SW7       30.00S

CITY           SKY/WX    TMP DP  RH WIND       PRES   REMARKS
JACKSON        PTSUNNY   80  67  64 W7        30.00F
LANSING        CLOUDY    81  68  64 W8        29.99F
MASON          CLOUDY    77  69  75 CALM      29.99F
MONROE         CLOUDY    84  68  58 CALM      29.98F
MT. CLEMENS    MOSUNNY   88  66  49 W13G18    29.95S HX  90
PONTIAC        CLOUDY    81  66  60 W10       29.98R
PORT HOPE        N/A     74  69  85 E7        29.92S
PORT HURON     MOSUNNY   86  66  51 SW5G16    29.95S
TRI CITIES     CLOUDY    86  69  56 W17       29.94S HX  90
YPSILANTI      CLOUDY    85  69  58 SW10      29.99S
$$
MIZ043>046-050>051-056>058-064>065-071>073-077>080-202000-
SOUTHWEST LOWER MICHIGAN

CITY           SKY/WX    TMP DP  RH WIND       PRES   REMARKS
BATTLE CREEK   CLOUDY    83  70  64 W9        29.99F
BENTON HARBOR  CLOUDY    80  69  69 W9        29.98S
BIG RAPIDS     CLOUDY    83  64  53 W9        29.95F
COLDWATER      CLOUDY    83  71  67 W8        29.99F
HOLLAND        CLOUDY    77  69  76 W6        29.99S
GRAND RAPIDS   PTSUNNY   81  70  69 W9        29.97F
KALAMAZOO      CLOUDY    84  68  58 NW14G20   29.98F
MARSHALL       CLOUDY    85  71  62 W7        29.98F HX  91
MOUNT PLEASANT MOSUNNY   87  64  46 W8        29.94S
MUSKEGON       PTSUNNY   80  67  64 SW9       29.96F
STURGIS        CLOUDY    82  72  70 W6        29.99S
$$
MIZ016>042-202000-
NORTHERN LOWER MICHIGAN

CITY           SKY/WX    TMP DP  RH WIND       PRES   REMARKS
ALPENA         PTSUNNY   80  69  69 E7        29.90F
BEAVER ISLAND  SUNNY     76  62  61 W13       29.93S
BELLAIRE       MOSUNNY   79  62  56 W5        29.94F
CADILLAC       CLOUDY    82  64  53 NW13G21   29.96S
CHARLEVOIX     CLOUDY    77  61  58 W15       29.96F
GAYLORD        CLOUDY    81  62  52 W17G24    29.95S
HOUGHTON LAKE  CLOUDY    83  65  54 W15       29.95F
MANISTEE       CLOUDY    80  70  71 NW9       29.94F
OSCODA         CLOUDY    78  65  64 SE5       29.91F
PELLSTON       SUNNY     81  54  39 W10       29.92F
TRAVERSE CITY  CLOUDY    84  64  50 NW12G17   29.92F
LUDINGTON      PTSUNNY   80  69  70 NW5       29.94F
$$
MIZ007>008-015-202000-
EASTERN UPPER MICHIGAN

CITY           SKY/WX    TMP DP  RH WIND       PRES   REMARKS
KINROSS        SUNNY     84  59  42 W8        29.89F
MACKINAC ISLAN SUNNY     73  64  74 W9G16     29.91F
NEWBERRY       SUNNY     82  61  49 NW6       29.90S
S. S. MARIE    SUNNY     83  60  45 NW8       29.89S
$$
MIZ004>006-011>014-085-202000-
CENTRAL UPPER MICHIGAN

CITY           SKY/WX    TMP DP  RH WIND       PRES   REMARKS
MANISTIQUE     MOSUNNY   83  59  43 W8        29.90F
ESCANABA       SUNNY     85  61  44 NW13      29.90F
MENOMINEE      CLOUDY    82  66  58 W8        29.94F
SAWYER-GWINN   PTSUNNY   79  61  53 NE10      29.94S
$$
MIZ001>003-009>011-084-202000-
WESTERN UPPER MICHIGAN

CITY           SKY/WX    TMP DP  RH WIND       PRES   REMARKS
IRON MOUNTAIN  PTSUNNY   87  61  41 NW8       29.94S
HOUGHTON       SUNNY     76  62  62 W15       29.95S
COPPER HARBOR    N/A     65  56  72 N14       29.92S
IRONWOOD       MOSUNNY   78  64  61 NW10G17   29.99
$$

ABBREVIATIONS USED IN REMARKS
   TC - TEMPERATURE IN CELSIUS
  WCI - WIND CHILL INDEX
   HX - HEAT INDEX
  VSB - VISIBILITY





USA.gov is the U.S. government's official web portal to all federal, state and local government web resources and services.